User: anonymous
Location: Unspecified
(0.0000°N, 0.0000°E)
Time: 12:51:24
(UTC+02:00)
Language:

Helios 1A Rocket - Orbit

View from above orbital plane
View from above orbital plane
View from above satellite
View from above satellite

Ground track
Ground track

The orbit data is extracted from the following two-line orbital elements,

1 23608U 95033D   14238.11810519  .00000897  00000-0  93417-4 0  2932
2 23608 098.2875 103.2779 0018859 036.5373 323.7127 14.92456311 34454
Epoch (UTC): 26 August 2014 02:50:04
Eccentricity: 0.0018859
inclination: 98.2875°
perigee height: 577 km
apogee height: 603 km
right ascension of ascending node: 103.2779°
argument of perigee: 36.5373°
revolutions per day: 14.92456311
mean anomaly at epoch: 323.7127°
orbit number at epoch: 3445

The dashed part of the orbit path shows where the satellite is in the earth's shadow,  

DLR